Location: Jackson Park
(37.2862°N, 79.9123°W)
Time: 22:14:23
(UTC+00:00)

Transit 4A - Pass Details

Date: 11 May 2026
Orbit: 861 x 980 km, 66.8° (Epoch: 5 June)

Event Time Altitude Azimuth Distance (km) Brightness Sun altitude
Rises 22:19:11 0° 339° (NNW) 3,685 11.4 21.9°
Reaches altitude 10° 22:21:59 10° 347° (NNW) 2,737 10.7 21.4°
Maximum altitude 22:27:54 37° 54° (NE) 1,467 8.8 20.2°
Drops below altitude 10° 22:33:43 10° 121° (ESE) 2,704 9.9 19.1°
Sets 22:36:28 0° 129° (SE) 3,634 10.5 18.5°
